Powrót do katalogu

BREEZE-M DEB

TANK

AktywnyHEO
NORAD 55843·DEBRIS·🇷🇺 Russia

Wystrzelony Mar 12, 2023 z Baikonur Cosmodrome

Loading…

Następne Przeloty (najbliższe 24 godziny)

TLE

ŚwieżeSource: Space-Track

Epoka: Sep 13, 2026, 00:15 UTC

1 55843U 23031C   26256.01101483  .00045674  00000-0  11608-2 0  9997
2 55843  48.6936 318.3625 5566157 146.6687 265.8811  4.80339749 31848

Śledź BREEZE-M DEB w czasie rzeczywistym z AllMySat

Download on the App Store